Regional Weather Roundup
Issued by NWS Northern Indiana

Home | Current Version | Previous Version | Graphics & Text | Print | Product List | Glossary On
Versions: 1 2 3 4 5 6 7 8 9 10 11 12 13 14 15 16 17 18 19 20 21 22 23 24 25 26 27 28 29 30 31 32 33 34 35 36 37 38 39 40 41 42 43 44 45 46 47 48 49 50
000
ASUS43 KIWX 241810
RWRIWX

KIWX WEATHER ROUNDUP
NATIONAL WEATHER SERVICE NORTHERN INDIANA
200 PM EDT TUE MAY 24 2016

NOTE: "FAIR" INDICATES FEW OR NO CLOUDS BELOW 12,000 FEET WITH NO
SIGNIFICANT WEATHER AND/OR OBSTRUCTIONS TO VISIBILITY.

* THESE STATIONS ARE NOT UNDER NWS QUALITY CONTROL. THEY ALSO MAY NOT
  REPORT WEATHER SUCH AS PRECIPITATION OR FOG.

INZ001>027-241900-
NORTHERN INDIANA

CITY           SKY/WX    TMP DP  RH WIND       PRES   REMARKS
GARY*          MOSUNNY   84  59  42 SW14      29.99F
VALPARAISO     SUNNY     84  49  29 S15G23    30.01F
6HR MIN TEMP:  63; 6HR MAX TEMP:  84;

MICHIGAN CITY* SUNNY     82  52  34 SW15      30.00F
LAPORTE*       SUNNY     86  46  25 SW12G20   30.02F
6HR MIN TEMP:  63; 6HR MAX TEMP:  86;

KNOX*          MOSUNNY   82  32  16 SW14G22   30.01
SOUTH BEND     SUNNY     82  51  34 SW10G25   30.03F
6HR MIN TEMP:  61; 6HR MAX TEMP:  82;

ELKHART*       MOSUNNY   81  57  44 SW7       30.04F
GOSHEN         MOSUNNY   82  50  32 S10G16    30.03F
6HR MIN TEMP:  60; 6HR MAX TEMP:  82; 6HR PCP: TRACE;

MONTICELLO*    MOSUNNY   82  40  22 S9        30.02F
6HR MIN TEMP:  62; 6HR MAX TEMP:  83;

LOGANSPORT*    MOSUNNY   82  48  30 SW12      30.05F
ROCHESTER*     MOSUNNY   84  50  30 S8        30.05S
WARSAW*        MOSUNNY   81  50  34 W8        30.04F
ANGOLA*        MOSUNNY   81  54  39 SW8       30.04F
FORT WAYNE     PTSUNNY   81  47  30 SW8       30.05F
6HR MIN TEMP:  58; 6HR MAX TEMP:  82;

HUNTINGTON*    MOSUNNY  N/A N/A N/A SW7       30.05F
PERU/GRISSOM   MOSUNNY   81  50  33 S8        30.04S
6HR MIN TEMP:  61; 6HR MAX TEMP:  82;

MARION*        SUNNY     80  46  29 S6G17     30.07F
6HR MIN TEMP:  -1; 6HR MAX TEMP:  82;


$$
INZ028>050-241900-
CENTRAL INDIANA

CITY           SKY/WX    TMP DP  RH WIND       PRES   REMARKS
LAFAYETTE      MOSUNNY   82  50  32 SW10G17   30.03F
6HR MIN TEMP:  60; 6HR MAX TEMP:  82;

KOKOMO*        MOSUNNY   81  54  39 SW9       30.05S
6HR MIN TEMP:  61; 6HR MAX TEMP:  82;

MUNCIE*        MOSUNNY   81  43  26 W6        30.07F
6HR MIN TEMP:  63; 6HR MAX TEMP:  81;

INDIANAPOLIS   PTSUNNY   80  54  40 VRB7      30.06F
6HR MIN TEMP:  60; 6HR MAX TEMP:  80;


$$
MIZ043>046-050>051-056>058-064>065-071>073-077>080-241900-
SOUTHWEST LOWER MICHIGAN

CITY           SKY/WX    TMP DP  RH WIND       PRES   REMARKS
BATTLE CREEK   SUNNY     81  50  33 W5        30.03F
6HR MIN TEMP:  58; 6HR MAX TEMP:  82;

BENTON HARBOR  SUNNY     81  53  37 W9        30.00F
6HR MIN TEMP:  63; 6HR MAX TEMP:  81;

COLDWATER*     PTSUNNY   81  51  35 W6        30.03F
6HR MIN TEMP:  60; 6HR MAX TEMP:  81;

HILLSDALE*     MOSUNNY   81  35  18 SW9       30.04F
6HR MIN TEMP:  64; 6HR MAX TEMP:  81;

HOLLAND        SUNNY     81  50  33 SW16G23   30.01F
6HR MIN TEMP:  66; 6HR MAX TEMP:  81;

GRAND RAPIDS   PTSUNNY   84  50  30 SW13G21   30.01F
6HR MIN TEMP:  60; 6HR MAX TEMP:  84;

KALAMAZOO      MOSUNNY   82  50  32 SW13G18   30.02F
6HR MIN TEMP:  59; 6HR MAX TEMP:  82;

STURGIS*       MOSUNNY   80  51  35 W9        30.03S
6HR MIN TEMP:  58; 6HR MAX TEMP:  81;

THREE RIVERS*  FAIR      82  47  29 W8        30.03F
6HR MIN TEMP:  57; 6HR MAX TEMP:  83;


$$
OHZ001>008-015>018-024>025-241900-
NORTHWEST OHIO

CITY           SKY/WX    TMP DP  RH WIND       PRES   REMARKS
WAUSEON*         N/A     82  55  39 W12G22    30.04F
DEFIANCE       SUNNY     83  48  29 MISG      30.04F
6HR MIN TEMP:  65; 6HR MAX TEMP:  83;

FINDLAY        SUNNY     80  42  25 MISG      30.06S
6HR MIN TEMP:  60; 6HR MAX TEMP:  82;

TOLEDO EXPRESS SUNNY     83  43  24 SW13      30.04S
6HR MIN TEMP:  58; 6HR MAX TEMP:  83;

TOLEDO METCALF SUNNY     82  44  26 S9        30.05F
6HR MIN TEMP:  60; 6HR MAX TEMP:  82;

LIMA           SUNNY     79  43  27 W8        30.08F
6HR MIN TEMP:  61; 6HR MAX TEMP:  79;


$$
AND FOR LAKE MICHIGAN COASTAL AND OPEN LAKE BUOY OBSERVATIONS

STATION/POSITION TEMP    WIND        PRES    VSBY  WAVE
                 AIR SEA DIR/SP/G                  HT/PER
                 (F)     (DEG/KT/KT) (MB)    (MI)  (FT/S)
CALUMET HARBOR    80     190/  9/ 19 1015.0F
MICHIGAN CITY     74     190/  1/  5   N/A
BURNS HARBOR      79     220/ 15/ 21 1016.3F
SAINT JOSEPH      74     180/  6/  7 1016.9S
SOUTH LAKE BUOY   53 48  160/ 10/ 10 1015.4F         1
4 MI NW BRIDGMAN  71 60   CALM  /  2   N/A           1
MICHIGAN CITY     73 58   CALM  /  2   N/A           0

$$
&&




USA.gov is the U.S. government's official web portal to all federal, state and local government web resources and services.